Zurück zum Katalog

FENGYUN 1C DEB

AktivSSO
NORAD 46468·DEBRIS·🇨🇳 China

Gestartet May 10, 1999 von Taiyuan Satellite Launch Center

Loading…

Nächste Überflüge (nächste 24 Stunden)

TLE

AktuellSource: Space-Track

Epoche: Sep 14, 2026, 11:56 UTC

1 46468U 99025EZK 26257.49760730  .00002607  00000-0  10843-2 0  9994
2 46468  98.8805 353.8718 0045156 153.1196 266.9305 14.26710543777465

Verfolge FENGYUN 1C DEB in Echtzeit mit AllMySat

Download on the App Store